Location: Allie Creek
(37.5926°N, 89.8526°W)
Time: 11:56:40
(UTC+00:00)

CSL-04 Rocket - Pass Details

Date: 26 September 2023
Orbit: 805 x 859 km, 98.8° (Epoch: 10 December)

Event Time Altitude Azimuth Distance (km) Brightness Sun altitude
Exits shadow 01:47:15 58° 113° (ESE) 936 3.5 -23.4°
Maximum altitude 01:47:57 64° 73° (ENE) 887 3.5 -23.5°
Drops below altitude 10° 01:53:11 10° 353° (N) 2,397 6.3 -24.5°
Sets 01:55:33 0° 351° (N) 3,336 7.2 -24.9°
